Richmond, VA

10:01 PM EDT on May 27, 2017 (GMT -0400)
Richmond International

Weather History for KRIC - November, 2012

Change the Weather History Date:

Wednesday, November 7, 2012

  Actual Average Record
Temperature  
Mean Temperature 43 °F 53 °F  
Max Temperature 48 °F 65 °F 79 °F (1975)
Min Temperature 38 °F 42 °F 22 °F (1967)
Degree Days  
Heating Degree Days 22 12  
Month to date heating degree days 140 79  
Since 1 July heating degree days 342 312  
Cooling Degree Days 0 0  
Month to date cooling degree days 0 0  
Year to date cooling degree days 1744 1543  
Moisture  
Dew Point 32 °F    
Average Humidity 71    
Maximum Humidity 85    
Minimum Humidity 56    
Precipitation  
Precipitation 0.03 in 0.10 in 1.99 in (1997)
Month to date precipitation 0.03 0.76  
Year to date precipitation 33.45 37.86  
Snow  
Snow 0.00 in 0.00 in 0.10 in (1953)
Month to date snowfall 0.0 0.0  
Since 1 July snowfall 0.0 0.0  
Snow Depth 0.00 in    
Sea Level Pressure  
Sea Level Pressure 29.91 in    
Wind  
Wind Speed 10 mph (North)    
Max Wind Speed 16 mph    
Max Gust Speed 21 mph    
Visibility 10 miles    
Events Rain    
T = Trace of Precipitation, MM = Missing Value Source: NWS Daily Summary

Daily Weather History Graph

Daily Weather History Graph

Search for Another Location

Airport or City:

Trip Planner

Search our weather history database for the weather conditions in past years. The results will help you decide how hot, cold, wet, or windy it might be!

Date:

Astronomy

Nov. 07, 2012 Rise Set
Actual Time 6:40 AM EST 5:04 PM EST
Civil Twilight 6:13 AM EST 5:32 PM EST
Nautical Twilight 5:42 AM EST 6:03 PM EST
Astronomical Twilight 5:11 AM EST 6:33 PM EST
Moon No Moon Rise 1:05 PM EST (11/7)
Length of Visible Light 11h 18m
Length of Day
10h 23m
Last Quarter, 43% of the Moon is Illuminated
Nov 7
Last Quarter
Nov 13
New
Nov 20
First Quarter
Nov 28
Full
Dec 6
Last Quarter

Hourly Weather History & Observations

Time (EST) Temp. Windchill Dew Point Humidity Pressure Visibility Wind Dir Wind Speed Gust Speed Precip Events Conditions
12:19 AM 42.8 °F 37.0 °F 33.8 °F 70% 29.94 in 10.0 mi North 10.4 mph - N/A   Overcast
12:54 AM 42.1 °F 37.1 °F 33.1 °F 70% 29.94 in 10.0 mi NNW 8.1 mph - N/A   Overcast
1:38 AM 42.8 °F 36.6 °F 33.8 °F 70% 29.91 in 10.0 mi North 11.5 mph 19.6 mph N/A   Mostly Cloudy
1:54 AM 42.1 °F 34.9 °F 34.0 °F 73% 29.92 in 10.0 mi North 13.8 mph - N/A   Overcast
2:54 AM 39.9 °F 33.9 °F 34.0 °F 79% 29.92 in 10.0 mi North 9.2 mph - 0.00 in Rain Light Rain
3:54 AM 39.0 °F 32.8 °F 35.1 °F 86% 29.92 in 10.0 mi North 9.2 mph - 0.01 in Rain Light Rain
4:54 AM 39.0 °F 32.8 °F 34.0 °F 82% 29.92 in 10.0 mi North 9.2 mph - 0.02 in   Overcast
5:54 AM 39.0 °F 32.8 °F 33.1 °F 79% 29.91 in 10.0 mi NNE 9.2 mph - N/A   Overcast
6:54 AM 39.0 °F 32.8 °F 32.0 °F 76% 29.92 in 10.0 mi North 9.2 mph - N/A   Overcast
7:54 AM 39.9 °F 33.4 °F 32.0 °F 73% 29.92 in 10.0 mi North 10.4 mph - N/A   Overcast
8:54 AM 42.1 °F 35.7 °F 32.0 °F 67% 29.92 in 10.0 mi North 11.5 mph - N/A   Overcast
9:54 AM 43.0 °F 36.8 °F 32.0 °F 65% 29.91 in 10.0 mi NNW 11.5 mph - 0.00 in   Overcast
10:54 AM 44.1 °F 39.0 °F 32.0 °F 63% 29.90 in 10.0 mi North 9.2 mph - N/A   Overcast
11:54 AM 46.0 °F 41.4 °F 33.1 °F 61% 29.88 in 10.0 mi NNW 9.2 mph - N/A   Overcast
12:19 PM 46.4 °F 42.4 °F 33.8 °F 62% 29.86 in 10.0 mi North 8.1 mph - N/A   Overcast
12:54 PM 46.9 °F - 34.0 °F 61% 29.87 in 10.0 mi North 6.9 mph - N/A   Overcast
1:54 PM 46.9 °F - 34.0 °F 61% 29.86 in 10.0 mi NNW 12.7 mph - 0.00 in   Overcast
2:54 PM 48.0 °F - 33.1 °F 56% 29.87 in 10.0 mi North 12.7 mph - N/A   Overcast
3:54 PM 46.0 °F 41.0 °F 32.0 °F 58% 29.88 in 10.0 mi NNW 10.4 mph - N/A   Overcast
4:54 PM 45.0 °F 39.3 °F 30.9 °F 58% 29.88 in 10.0 mi North 11.5 mph - N/A   Overcast
5:54 PM 43.0 °F 38.8 °F 30.9 °F 62% 29.90 in 10.0 mi North 6.9 mph - N/A   Mostly Cloudy
6:54 PM 44.1 °F 38.6 °F 30.9 °F 60% 29.91 in 10.0 mi North 10.4 mph - N/A   Overcast
7:54 PM 43.0 °F 36.4 °F 30.0 °F 60% 29.92 in 10.0 mi North 12.7 mph - N/A   Overcast
8:54 PM 43.0 °F 37.2 °F 28.9 °F 58% 29.92 in 10.0 mi NNW 10.4 mph - N/A   Overcast
9:54 PM 42.1 °F 36.1 °F 28.9 °F 60% 29.92 in 10.0 mi NNW 10.4 mph - 0.00 in Rain Light Rain
10:54 PM 42.1 °F 36.6 °F 28.9 °F 60% 29.93 in 10.0 mi NNW 9.2 mph - 0.00 in   Overcast
11:54 PM 42.1 °F 38.4 °F 28.0 °F 58% 29.93 in 10.0 mi NW 5.8 mph - N/A   Mostly Cloudy